When you browse on this site, cookies collect data to enhance your experience and personalize the content and advertising you see.
Visit our Privacy Policy to learn more. By continuing to use the site, you agree to this use of cookies and data.

Hourly Weather Perth

Today, 16 July, Thursday

Time Temperature Precipitation Wind Pressure Humidity
00:00 +14°C° 0 mm 4 mps 759 mmHg 78%
01:00 +13°C° 0 mm 4 mps 758 mmHg 79%
02:00 +13°C° 0 mm 5 mps 758 mmHg 80%
03:00 +13°C° 0 mm 5 mps 757 mmHg 81%
04:00 +13°C° 0 mm 5 mps 757 mmHg 83%
05:00 +13°C° 0 mm 5 mps 757 mmHg 84%
06:00 +13°C° 0 mm 5 mps 757 mmHg 84%
07:00 +14°C° 0 mm 5 mps 757 mmHg 84%
08:00 +14°C° 0 mm 5 mps 757 mmHg 82%
09:00 +16°C° 0.2 mm 5 mps 757 mmHg 78%
10:00 +19°C° 0.2 mm 6 mps 757 mmHg 75%
11:00 +20°C° 0.2 mm 7 mps 757 mmHg 71%
12:00 +21°C° 0.2 mm 7 mps 756 mmHg 69%
13:00 +21°C° 0.2 mm 8 mps 755 mmHg 66%
14:00 +21°C° 0 mm 7 mps 755 mmHg 66%
15:00 +20°C° 0.5 mm 6 mps 755 mmHg 71%
16:00 +19°C° 0.5 mm 5 mps 755 mmHg 75%
17:00 +18°C° 0.5 mm 4 mps 755 mmHg 80%
18:00 +17°C° 0.3 mm 3 mps 755 mmHg 82%
19:00 +17°C° 0.3 mm 2 mps 755 mmHg 83%
20:00 +16°C° 0.3 mm 1 mps 755 mmHg 85%
21:00 +16°C° 0.8 mm 2 mps 755 mmHg 85%
22:00 +16°C° 0.8 mm 2 mps 755 mmHg 84%
23:00 +16°C° 0.8 mm 2 mps 755 mmHg 84%

Tomorrow, 17 July, Friday

Time Temperature Precipitation Wind Pressure Humidity
00:00 +16°C° 0.5 mm 3 mps 755 mmHg 84%
01:00 +14°C° 0.5 mm 4 mps 755 mmHg 83%
02:00 +14°C° 0.5 mm 5 mps 754 mmHg 83%
03:00 +14°C° 0.3 mm 5 mps 755 mmHg 79%
04:00 +14°C° 0.3 mm 5 mps 755 mmHg 76%
05:00 +14°C° 0.3 mm 5 mps 755 mmHg 72%
06:00 +13°C° 0.7 mm 4 mps 756 mmHg 74%
07:00 +13°C° 0.7 mm 4 mps 756 mmHg 75%
08:00 +13°C° 0.7 mm 3 mps 756 mmHg 76%
09:00 +13°C° 1.1 mm 4 mps 757 mmHg 74%
10:00 +13°C° 1.1 mm 5 mps 758 mmHg 73%
11:00 +14°C° 1.1 mm 6 mps 758 mmHg 71%
12:00 +14°C° 0.4 mm 6 mps 758 mmHg 69%
13:00 +14°C° 0.4 mm 7 mps 758 mmHg 68%
14:00 +14°C° 0.4 mm 7 mps 758 mmHg 66%
15:00 +14°C° 0.1 mm 7 mps 759 mmHg 65%
16:00 +13°C° 0.1 mm 6 mps 760 mmHg 64%
17:00 +13°C° 0.1 mm 5 mps 760 mmHg 63%
18:00 +13°C° 0 mm 4 mps 761 mmHg 65%
19:00 +12°C° 0 mm 4 mps 761 mmHg 66%
20:00 +11°C° 0 mm 3 mps 762 mmHg 68%
21:00 +11°C° 0 mm 3 mps 762 mmHg 68%
22:00 +12°C° 0 mm 2 mps 763 mmHg 68%
23:00 +11°C° 0 mm 1 mps 763 mmHg 68%

Day after tomorrow, 18 July, Saturday

Time Temperature Precipitation Wind Pressure Humidity
00:00 +11°C° 0 mm 1 mps 763 mmHg 68%
01:00 +11°C° 0 mm 1 mps 763 mmHg 68%
02:00 +11°C° 0 mm 1 mps 763 mmHg 68%
03:00 +11°C° 0 mm 1 mps 763 mmHg 69%
04:00 +11°C° 0 mm 1 mps 763 mmHg 69%
05:00 +11°C° 0 mm 1 mps 763 mmHg 70%
06:00 +11°C° 0 mm 1 mps 764 mmHg 71%
07:00 +12°C° 0 mm 2 mps 764 mmHg 72%
08:00 +12°C° 0 mm 2 mps 764 mmHg 73%
09:00 +13°C° 0 mm 2 mps 764 mmHg 71%
10:00 +14°C° 0 mm 2 mps 765 mmHg 69%
11:00 +15°C° 0 mm 2 mps 765 mmHg 68%
12:00 +16°C° 0.1 mm 2 mps 764 mmHg 67%
13:00 +17°C° 0.1 mm 2 mps 764 mmHg 66%
14:00 +17°C° 0.1 mm 3 mps 763 mmHg 65%
15:00 +17°C° 0.1 mm 3 mps 764 mmHg 68%
16:00 +17°C° 0.1 mm 3 mps 764 mmHg 70%
17:00 +16°C° 0.1 mm 3 mps 764 mmHg 73%
18:00 +16°C° 0.1 mm 3 mps 765 mmHg 75%
19:00 +14°C° 0.1 mm 3 mps 765 mmHg 78%
20:00 +14°C° 0.1 mm 2 mps 765 mmHg 80%
21:00 +14°C° 0 mm 2 mps 766 mmHg 80%
22:00 +14°C° 0 mm 2 mps 766 mmHg 81%
23:00 +13°C° 0 mm 2 mps 766 mmHg 81%

19 July, Sunday

Time Temperature Precipitation Wind Pressure Humidity
00:00 +13°C° 0 mm 2 mps 766 mmHg 82%
01:00 +12°C° 0 mm 2 mps 766 mmHg 82%
02:00 +10°C° 0 mm 2 mps 766 mmHg 83%
03:00 +10°C° 0 mm 2 mps 766 mmHg 83%
04:00 +10°C° 0 mm 2 mps 767 mmHg 83%
05:00 +9°C° 0 mm 2 mps 767 mmHg 84%
06:00 +9°C° 0 mm 2 mps 767 mmHg 83%
07:00 +9°C° 0 mm 2 mps 768 mmHg 82%
08:00 +9°C° 0 mm 2 mps 768 mmHg 81%
09:00 +12°C° 0 mm 2 mps 768 mmHg 75%
10:00 +13°C° 0 mm 2 mps 768 mmHg 68%
11:00 +15°C° 0 mm 2 mps 768 mmHg 62%
12:00 +16°C° 0 mm 2 mps 768 mmHg 59%
13:00 +16°C° 0 mm 2 mps 768 mmHg 56%
14:00 +17°C° 0 mm 2 mps 767 mmHg 53%
15:00 +17°C° 0 mm 2 mps 767 mmHg 57%
16:00 +16°C° 0 mm 2 mps 767 mmHg 60%
17:00 +15°C° 0 mm 2 mps 767 mmHg 64%
18:00 +13°C° 0 mm 3 mps 768 mmHg 66%
19:00 +12°C° 0 mm 3 mps 768 mmHg 69%
20:00 +11°C° 0 mm 3 mps 769 mmHg 71%
21:00 +11°C° 0 mm 3 mps 769 mmHg 72%
22:00 +10°C° 0 mm 3 mps 769 mmHg 72%
23:00 +10°C° 0 mm 3 mps 769 mmHg 73%

20 July, Monday

Time Temperature Precipitation Wind Pressure Humidity
00:00 +10°C° 0 mm 3 mps 769 mmHg 73%
01:00 +10°C° 0 mm 3 mps 769 mmHg 74%
02:00 +9°C° 0 mm 3 mps 769 mmHg 74%
03:00 +9°C° 0 mm 3 mps 769 mmHg 74%
04:00 +9°C° 0 mm 3 mps 769 mmHg 74%
05:00 +9°C° 0 mm 3 mps 769 mmHg 75%
06:00 +9°C° 0 mm 3 mps 769 mmHg 74%
07:00 +9°C° 0 mm 3 mps 769 mmHg 74%
08:00 +8°C° 0 mm 4 mps 769 mmHg 74%
09:00 +11°C° 0 mm 4 mps 769 mmHg 68%
10:00 +12°C° 0 mm 5 mps 769 mmHg 63%
11:00 +14°C° 0 mm 5 mps 769 mmHg 58%
12:00 +15°C° 0 mm 5 mps 768 mmHg 56%
13:00 +17°C° 0 mm 4 mps 767 mmHg 55%
14:00 +17°C° 0 mm 4 mps 767 mmHg 53%
15:00 +17°C° 0 mm 3 mps 767 mmHg 56%
16:00 +16°C° 0 mm 3 mps 767 mmHg 59%
17:00 +16°C° 0 mm 3 mps 767 mmHg 62%
18:00 +14°C° 0 mm 3 mps 767 mmHg 65%
19:00 +13°C° 0 mm 3 mps 767 mmHg 68%
20:00 +12°C° 0 mm 3 mps 768 mmHg 71%
21:00 +12°C° 0 mm 3 mps 767 mmHg 71%
22:00 +11°C° 0 mm 3 mps 767 mmHg 70%
23:00 +11°C° 0 mm 4 mps 767 mmHg 70%

21 July, Tuesday

Time Temperature Precipitation Wind Pressure Humidity
00:00 +11°C° 0 mm 4 mps 767 mmHg 69%
01:00 +11°C° 0 mm 4 mps 767 mmHg 67%
02:00 +11°C° 0 mm 4 mps 766 mmHg 66%
03:00 +10°C° 0 mm 4 mps 766 mmHg 65%
04:00 +10°C° 0 mm 4 mps 766 mmHg 64%
05:00 +10°C° 0 mm 4 mps 766 mmHg 62%
06:00 +10°C° 0 mm 4 mps 766 mmHg 63%
07:00 +10°C° 0 mm 4 mps 766 mmHg 63%
08:00 +10°C° 0 mm 4 mps 767 mmHg 63%
09:00 +12°C° 0 mm 4 mps 766 mmHg 59%
10:00 +14°C° 0 mm 4 mps 766 mmHg 55%
11:00 +17°C° 0 mm 4 mps 766 mmHg 51%
12:00 +18°C° 0 mm 4 mps 765 mmHg 49%
13:00 +19°C° 0 mm 4 mps 765 mmHg 48%
14:00 +20°C° 0 mm 4 mps 764 mmHg 46%
15:00 +19°C° 0 mm 3 mps 764 mmHg 50%
16:00 +19°C° 0 mm 3 mps 764 mmHg 54%
17:00 +18°C° 0 mm 2 mps 764 mmHg 57%
18:00 +17°C° 0 mm 2 mps 764 mmHg 60%
19:00 +16°C° 0 mm 2 mps 764 mmHg 62%
20:00 +14°C° 0 mm 3 mps 765 mmHg 65%
21:00 +13°C° 0 mm 3 mps 765 mmHg 64%
22:00 +13°C° 0 mm 3 mps 764 mmHg 64%
23:00 +12°C° 0 mm 3 mps 764 mmHg 63%
Show more